Weather History for Wilmington, OH

Change the Weather History Date:

Thursday, June 27, 2013

  Actual Average (KDAY) Record (KDAY)
Temperature  
Mean Temperature 75 °F 73 °F  
Max Temperature 86 °F 83 °F 102 °F (1944)
Min Temperature 66 °F 64 °F 48 °F (1927)
Degree Days  
Heating Degree Days 0 0  
Month to date heating degree days 22  
Since 1 June heating degree days 22  
Since 1 July heating degree days 5642  
Cooling Degree Days 10 8  
Month to date cooling degree days 163  
Year to date cooling degree days 233  
Since 1 June cooling degree days 163  
Growing Degree Days 25 (Base 50)    
Moisture  
Dew Point 68 °F    
Average Humidity 87    
Maximum Humidity 100    
Minimum Humidity 57    
Precipitation  
Precipitation 0.18 in 0.13 in 3.23 in (1932)
Month to date precipitation 3.76  
Year to date precipitation 20.80  
Snow  
Snow 0.00 in 0.00 in 0.00 in ()
Month to date snowfall 0.0  
Since 1 June snowfall 0.0  
Since 1 July snowfall 23.3  
Snow Depth -    
Sea Level Pressure  
Sea Level Pressure 29.77 in    
Wind  
Wind Speed 7 mph (WSW)    
Max Wind Speed 14 mph    
Max Gust Speed 24 mph    
Visibility 7 miles    
Events Rain , Thunderstorm    
T = Trace of Precipitation, MM = Missing Value Source: NWS Daily Summary

Daily Weather History Graph

Daily Weather History Graph

Search for Another Location

Airport:

Trip Planner

Search our weather history database for the weather conditions in past years. The results will help you decide how hot, cold, wet, or windy it might be!

Date:

Astronomy

Jun. 27, 2013 Rise Set
Actual Time 6:10 AM EDT 9:06 PM EDT
Civil Twilight 5:37 AM EDT 9:38 PM EDT
Nautical Twilight 4:57 AM EDT 10:19 PM EDT
Astronomical Twilight 4:09 AM EDT 11:06 PM EDT
Moon No Moon Rise 11:08 AM EDT (6/27)
Length of Visible Light 16h 00m
Length of Day
14h 55m
Waning Gibbous, 76% of the Moon is Illuminated
Jun 27
Waning Gibbous
Jun 30
Last Quarter
Jul 8
New
Jul 15
First Quarter
Jul 22
Full

Hourly Weather History & Observations

Time (EDT) Temp. Heat Index Dew Point Humidity Pressure Visibility Wind Dir Wind Speed Gust Speed Precip Events Conditions
12:01 AM 69.8 °F - 68.0 °F 94% 29.82 in 4.0 mi South 8.1 mph - 0.00 in   Overcast
12:44 AM 68.0 °F - 66.2 °F 94% 29.81 in 5.0 mi South 4.6 mph - 0.00 in   Overcast
12:54 AM 68.0 °F - 66.9 °F 96% 29.78 in 5.0 mi SSW 4.6 mph - 0.00 in   Overcast
1:03 AM 68.0 °F - 66.2 °F 94% 29.80 in 4.0 mi SW 5.8 mph - N/A   Overcast
1:42 AM 68.0 °F - 66.2 °F 94% 29.80 in 1.8 mi WSW 5.8 mph - 0.01 in Rain Rain
1:54 AM 68.0 °F - 66.9 °F 96% 29.77 in 2.5 mi SSW 5.8 mph - 0.09 in Rain Rain
2:17 AM 66.2 °F - 66.2 °F 100% 29.79 in 4.0 mi SSW 8.1 mph - 0.05 in Rain Light Rain
2:44 AM 66.2 °F - 66.2 °F 100% 29.79 in 8.0 mi South 5.8 mph - 0.09 in   Overcast
2:54 AM 66.9 °F - 66.0 °F 97% 29.76 in 9.0 mi SSW 6.9 mph - 0.09 in Rain , Thunderstorm Light Rain
3:03 AM 66.2 °F - 66.2 °F 100% 29.79 in 6.0 mi SSW 5.8 mph - 0.00 in Rain , Thunderstorm Light Rain
3:15 AM 66.2 °F - 66.2 °F 100% 29.79 in 6.0 mi SSW 6.9 mph - 0.00 in Rain Light Rain
3:31 AM 66.2 °F - 66.2 °F 100% 29.78 in 9.0 mi SSW 5.8 mph - 0.00 in   Overcast
3:38 AM 68.0 °F - 66.2 °F 94% 29.78 in 9.0 mi SSW 4.6 mph - 0.00 in   Overcast
3:54 AM 68.0 °F - 66.0 °F 93% 29.75 in 10.0 mi SSW 4.6 mph - 0.00 in   Overcast
4:54 AM 66.9 °F - 66.0 °F 97% 29.75 in 8.0 mi SSW 5.8 mph - N/A   Overcast
5:54 AM 66.9 °F - 66.0 °F 97% 29.74 in 5.0 mi SW 8.1 mph - N/A   Overcast
6:45 AM 66.2 °F - 66.2 °F 100% 29.78 in 3.0 mi SW 12.7 mph - N/A   Overcast
6:54 AM 66.9 °F - 66.0 °F 97% 29.76 in 3.0 mi SW 10.4 mph - N/A   Overcast
7:08 AM 66.2 °F - 66.2 °F 100% 29.78 in 1.8 mi SW 9.2 mph - N/A   Overcast
7:41 AM 68.0 °F - 66.2 °F 94% 29.79 in 2.5 mi WSW 9.2 mph - N/A   Overcast
7:50 AM 68.0 °F - 66.2 °F 94% 29.79 in 4.0 mi WSW 6.9 mph - N/A   Overcast
7:54 AM 68.0 °F - 66.9 °F 96% 29.77 in 4.0 mi WSW 8.1 mph - N/A   Overcast
8:54 AM 69.1 °F - 66.9 °F 93% 29.77 in 5.0 mi WSW 10.4 mph - N/A   Overcast
9:54 AM 70.0 °F - 68.0 °F 93% 29.77 in 4.0 mi WSW 10.4 mph - N/A   Overcast
10:42 AM 69.8 °F - 68.0 °F 94% 29.78 in 4.0 mi West 10.4 mph - N/A   Overcast
10:54 AM 71.1 °F - 68.0 °F 90% 29.77 in 5.0 mi West 6.9 mph - N/A   Overcast
11:49 AM 75.2 °F - 69.8 °F 83% 29.79 in 7.0 mi WNW 10.4 mph - N/A   Overcast
11:54 AM 75.0 °F - 70.0 °F 84% 29.76 in 7.0 mi West 9.2 mph - N/A   Overcast
12:03 PM 73.4 °F - 69.8 °F 88% 29.79 in 5.0 mi West 11.5 mph - 0.00 in Rain Light Rain
12:14 PM 75.2 °F - 71.6 °F 89% 29.78 in 7.0 mi WNW 10.4 mph - 0.00 in   Mostly Cloudy
12:44 PM 75.2 °F - 69.8 °F 83% 29.79 in 8.0 mi WNW 6.9 mph - 0.00 in   Overcast
12:51 PM 75.2 °F - 69.8 °F 83% 29.79 in 8.0 mi WNW 6.9 mph - 0.00 in   Overcast
12:54 PM 77.0 °F - 69.1 °F 76% 29.76 in 8.0 mi WNW 6.9 mph - 0.00 in   Overcast
1:06 PM 78.8 °F - 69.8 °F 74% 29.79 in 9.0 mi WNW 8.1 mph - N/A   Overcast
1:16 PM 78.8 °F - 69.8 °F 74% 29.79 in 9.0 mi WNW 6.9 mph - N/A   Overcast
1:23 PM 77.0 °F - 69.8 °F 78% 29.79 in 9.0 mi NW 6.9 mph - N/A   Overcast
1:54 PM 79.0 °F - 70.0 °F 74% 29.75 in 9.0 mi West 6.9 mph - N/A   Mostly Cloudy
2:54 PM 81.0 °F 84.4 °F 70.0 °F 69% 29.75 in 10.0 mi West 11.5 mph - N/A   Mostly Cloudy
3:54 PM 81.0 °F 84.4 °F 70.0 °F 69% 29.74 in 10.0 mi WSW 10.4 mph - N/A   Mostly Cloudy
4:54 PM 84.0 °F 88.4 °F 70.0 °F 63% 29.72 in 10.0 mi West 11.5 mph - N/A   Scattered Clouds
5:54 PM 84.9 °F 88.2 °F 68.0 °F 57% 29.70 in 10.0 mi WNW 12.7 mph - N/A   Partly Cloudy
6:54 PM 82.0 °F 84.9 °F 68.0 °F 62% 29.71 in 10.0 mi West 13.8 mph 24.2 mph N/A   Clear
7:54 PM 80.1 °F 82.7 °F 68.0 °F 67% 29.71 in 10.0 mi West 9.2 mph - N/A   Clear
8:54 PM 78.1 °F - 68.0 °F 71% 29.72 in 10.0 mi West 5.8 mph - N/A   Scattered Clouds
9:54 PM 75.9 °F - 68.0 °F 76% 29.71 in 10.0 mi West 6.9 mph - N/A   Partly Cloudy
10:54 PM 75.0 °F - 68.0 °F 79% 29.70 in 10.0 mi West 6.9 mph - N/A   Clear
11:54 PM 73.0 °F - 68.0 °F 84% 29.68 in 10.0 mi WSW 5.8 mph - N/A   Clear